| time (UTC) | temp C | wind direction | speed KPH | gust KPH | rain 1hr cm | rain 24hr cm | rain mn cm | humidity % | barometer mb |
| 20260507171604 | 13 | 293 | 1.6 | 16.1 | 0.00 | 1.55 | 0.00 | 42 | 1005.5 |
| 20260507170059 | 13 | 331 | 6.4 | 20.9 | 0.00 | 1.55 | 0.00 | 43 | 1005.8 |
| 20260507164609 | 14 | 161 | 6.4 | 16.1 | 0.00 | 1.65 | 0.00 | 47 | 1005.8 |
| 20260507163106 | 13 | 347 | 3.2 | 16.1 | 0.00 | 1.65 | 0.00 | 48 | 1005.8 |
| 20260507161610 | 13 | 343 | 1.6 | 11.3 | 0.00 | 1.65 | 0.00 | 54 | 1006.2 |
| 20260507160104 | 12 | 0 | 1.6 | 12.9 | 0.00 | 1.65 | 0.00 | 49 | 1006.2 |
| 20260507154602 | 12 | 347 | 8.0 | 19.3 | 0.00 | 1.65 | 0.00 | 54 | 1006.6 |
| 20260507153101 | 12 | 330 | 4.8 | 16.1 | 0.00 | 1.65 | 0.00 | 54 | 1006.4 |
| 20260507151559 | 12 | 0 | 4.8 | 16.1 | 0.00 | 1.65 | 0.00 | 57 | 1006.6 |
| 20260507150058 | 11 | 328 | 0.0 | 14.5 | 0.00 | 1.65 | 0.00 | 60 | 1006.5 |
| 20260507144559 | 11 | 319 | 3.2 | 11.3 | 0.00 | 1.65 | 0.00 | 63 | 1006.6 |
| 20260507143102 | 11 | 344 | 1.6 | 8.0 | 0.00 | 1.65 | 0.00 | 67 | 1006.5 |
| 20260507141603 | 11 | 352 | 4.8 | 11.3 | 0.00 | 1.65 | 0.00 | 67 | 1006.6 |
| 20260507140125 | 11 | 339 | 4.8 | 11.3 | 0.00 | 1.65 | 0.00 | 67 | 1006.6 |
| 20260507134558 | 10 | 350 | 3.2 | 11.3 | 0.00 | 1.65 | 0.00 | 73 | 1006.7 |
| 20260507133100 | 10 | 163 | 1.6 | 11.3 | 0.00 | 1.65 | 0.00 | 73 | 1006.9 |
| 20260507131614 | 10 | 349 | 4.8 | 12.9 | 0.00 | 1.65 | 0.00 | 71 | 1007.0 |
| 20260507130111 | 10 | 0 | 1.6 | 6.4 | 0.00 | 1.65 | 0.00 | 72 | 1007.1 |
| 20260507124611 | 10 | 279 | 3.2 | 8.0 | 0.00 | 1.65 | 0.00 | 72 | 1006.9 |
| 20260507123101 | 9 | 255 | 1.6 | 9.7 | 0.00 | 1.65 | 0.00 | 74 | 1006.8 |
| 20260507121602 | 8 | 342 | 3.2 | 9.7 | 0.00 | 1.65 | 0.00 | 76 | 1007.0 |
| 20260507114606 | 8 | 335 | 1.6 | 8.0 | 0.00 | 1.65 | 0.00 | 79 | 1007.1 |
| 20260507113103 | 7 | 247 | 0.0 | 4.8 | 0.00 | 1.65 | 0.00 | 84 | 1007.1 |
| 20260507111559 | 6 | 332 | 0.0 | 3.2 | 0.00 | 1.65 | 0.00 | 89 | 1007.0 |
| 20260507110059 | 5 | 0 | 0.0 | 4.8 | 0.00 | 1.65 | 0.00 | 91 | 1007.0 |
| 20260507104557 | 5 | 340 | 3.2 | 3.2 | 0.00 | 1.65 | 0.00 | 93 | 1006.9 |
| 20260507103059 | 5 | 0 | 0.0 | 0.0 | 0.00 | 1.65 | 0.00 | 93 | 1006.7 |
| 20260507101557 | 4 | 0 | 0.0 | 1.6 | 0.00 | 1.65 | 0.00 | 94 | 1006.8 |
| 20260507100059 | 4 | 0 | 0.0 | 0.0 | 0.00 | 1.65 | 0.00 | 93 | 1006.8 |
| 20260507094557 | 4 | 0 | 0.0 | 1.6 | 0.00 | 1.65 | 0.00 | 93 | 1006.7 |
| 20260507093106 | 5 | 0 | 0.0 | 0.0 | 0.00 | 1.65 | 0.00 | 92 | 1007.0 |
| 20260507091606 | 5 | 0 | 0.0 | 0.0 | 0.00 | 1.65 | 0.00 | 92 | 1006.6 |
| 20260507090100 | 5 | 0 | 0.0 | 1.6 | 0.00 | 1.65 | 0.00 | 92 | 1006.5 |
| 20260507084559 | 5 | 0 | 0.0 | 1.6 | 0.00 | 1.65 | 0.00 | 91 | 1006.7 |
| 20260507083104 | 6 | 0 | 0.0 | 4.8 | 0.00 | 1.65 | 0.00 | 91 | 1006.5 |
| 20260507081559 | 6 | 0 | 0.0 | 3.2 | 0.00 | 1.65 | 0.00 | 90 | 1006.7 |
| 20260507080135 | 6 | 357 | 3.2 | 6.4 | 0.00 | 1.65 | 0.00 | 91 | 1006.5 |
| 20260507074605 | 6 | 323 | 1.6 | 3.2 | 0.00 | 1.65 | 0.00 | 91 | 1006.4 |
| 20260507073111 | 6 | 344 | 1.6 | 3.2 | 0.00 | 1.65 | 0.00 | 90 | 1005.9 |
| 20260507071613 | 7 | 323 | 3.2 | 6.4 | 0.00 | 1.65 | 0.00 | 90 | 1005.7 |
| 20260507070057 | 7 | 0 | 0.0 | 3.2 | 0.00 | 1.65 | 0.00 | 91 | 1006.0 |
| 20260507064600 | 7 | 351 | 0.0 | 8.0 | 0.00 | 1.65 | 0.00 | 90 | 1006.1 |
| 20260507063102 | 7 | 331 | 3.2 | 9.7 | 0.00 | 1.65 | 0.00 | 91 | 1005.9 |
| 20260507061559 | 7 | 342 | 3.2 | 4.8 | 0.00 | 1.65 | 0.00 | 92 | 1005.7 |
| 20260507060103 | 7 | 349 | 1.6 | 11.3 | 0.00 | 1.65 | 0.00 | 91 | 1005.8 |
| 20260507054608 | 7 | 352 | 0.0 | 6.4 | 0.00 | 1.65 | 0.00 | 92 | 1005.8 |
| 20260507053100 | 7 | 342 | 1.6 | 8.0 | 0.00 | 1.65 | 0.00 | 92 | 1005.6 |
| 20260507051601 | 7 | 319 | 1.6 | 8.0 | 0.00 | 1.65 | 0.00 | 93 | 1005.8 |
| 20260507050100 | 7 | 335 | 0.0 | 4.8 | 0.00 | 1.65 | 0.00 | 93 | 1005.6 |
| 20260507044623 | 7 | 330 | 1.6 | 6.4 | 0.00 | 1.65 | 0.00 | 93 | 1005.7 |
| 20260507043102 | 7 | 329 | 1.6 | 3.2 | 0.00 | 1.65 | 0.00 | 93 | 1005.8 |
| 20260507041604 | 7 | 324 | 0.0 | 3.2 | 0.03 | 1.65 | 0.00 | 93 | 1005.6 |
| 20260507040110 | 7 | 0 | 0.0 | 3.2 | 0.05 | 1.65 | 0.00 | 93 | 1005.7 |
| 20260507034603 | 8 | 0 | 0.0 | 3.2 | 0.05 | 1.65 | 1.65 | 93 | 1005.7 |
| 20260507033058 | 8 | 348 | 0.0 | 1.6 | 0.05 | 1.65 | 1.65 | 93 | 1005.7 |
| 20260507031606 | 8 | 0 | 3.2 | 8.0 | 0.03 | 1.63 | 1.63 | 92 | 1005.5 |
| 20260507030107 | 8 | 324 | 4.8 | 11.3 | 0.03 | 1.60 | 1.60 | 91 | 1005.3 |
| 20260507024557 | 8 | 318 | 6.4 | 12.9 | 0.03 | 1.60 | 1.60 | 92 | 1005.5 |
| 20260507023100 | 9 | 330 | 1.6 | 12.9 | 0.03 | 1.60 | 1.60 | 92 | 1005.2 |
| 20260507021558 | 9 | 259 | 6.4 | 12.9 | 0.03 | 1.60 | 1.60 | 92 | 1005.2 |
| 20260507020104 | 10 | 340 | 6.4 | 12.9 | 0.00 | 1.57 | 1.57 | 92 | 1005.1 |
| 20260507014608 | 10 | 297 | 4.8 | 8.0 | 0.00 | 1.57 | 1.57 | 93 | 1005.0 |
| 20260507013059 | 11 | 321 | 4.8 | 9.7 | 0.05 | 1.57 | 1.57 | 93 | 1004.7 |
| 20260507011604 | 11 | 311 | 3.2 | 8.0 | 0.10 | 1.57 | 1.57 | 93 | 1004.8 |
| 20260507010059 | 11 | 330 | 3.2 | 8.0 | 0.18 | 1.57 | 1.57 | 93 | 1004.3 |
| 20260507004558 | 12 | 328 | 1.6 | 6.4 | 0.23 | 1.57 | 1.57 | 94 | 1004.4 |
| 20260507003100 | 12 | 334 | 1.6 | 4.8 | 0.20 | 1.52 | 1.52 | 94 | 1004.1 |
| 20260507001617 | 12 | 322 | 1.6 | 11.3 | 0.25 | 1.47 | 1.47 | 93 | 1003.9 |
| 20260506234603 | 14 | 243 | 0.0 | 3.2 | 0.46 | 1.32 | 1.32 | 94 | 1003.3 |
| 20260506233058 | 15 | 259 | 0.0 | 3.2 | 0.46 | 1.32 | 1.32 | 94 | 1003.3 |
| 20260506231559 | 15 | 0 | 1.6 | 6.4 | 0.36 | 1.22 | 1.22 | 94 | 1003.2 |
| 20260506230059 | 15 | 169 | 1.6 | 9.7 | 0.05 | 0.91 | 0.91 | 93 | 1003.0 |
| 20260506224559 | 15 | 236 | 0.0 | 9.7 | 0.03 | 1.02 | 0.89 | 93 | 1003.1 |
| 20260506223057 | 15 | 131 | 6.4 | 17.7 | 0.00 | 0.99 | 0.86 | 92 | 1003.2 |
| 20260506221601 | 15 | 149 | 8.0 | 16.1 | 0.00 | 0.99 | 0.86 | 92 | 1003.3 |
| 20260506220108 | 15 | 178 | 6.4 | 12.9 | 0.03 | 0.99 | 0.86 | 92 | 1003.4 |
| 20260506214602 | 15 | 172 | 8.0 | 17.7 | 0.03 | 1.07 | 0.86 | 93 | 1003.5 |
| 20260506213104 | 15 | 155 | 4.8 | 14.5 | 0.05 | 1.07 | 0.86 | 94 | 1003.7 |
| 20260506211558 | 14 | 150 | 4.8 | 11.3 | 0.05 | 1.07 | 0.86 | 93 | 1003.6 |
| 20260506210120 | 14 | 132 | 3.2 | 8.0 | 0.03 | 1.04 | 0.84 | 93 | 1003.6 |
| 20260506204558 | 15 | 106 | 3.2 | 8.0 | 0.05 | 1.04 | 0.84 | 94 | 1003.8 |
| 20260506203141 | 14 | 119 | 1.6 | 6.4 | 0.23 | 1.02 | 0.81 | 94 | 1004.0 |
| 20260506201558 | 14 | 115 | 3.2 | 6.4 | 0.25 | 1.02 | 0.81 | 94 | 1004.2 |
| 20260506194558 | 13 | 147 | 6.4 | 11.3 | 0.33 | 0.99 | 0.79 | 94 | 1004.7 |
| 20260506193057 | 13 | 167 | 6.4 | 11.3 | 0.13 | 0.79 | 0.58 | 92 | 1004.8 |
| 20260506191605 | 14 | 131 | 3.2 | 8.0 | 0.15 | 0.76 | 0.56 | 93 | 1004.8 |
| 20260506190100 | 14 | 128 | 6.4 | 8.0 | 0.15 | 0.71 | 0.51 | 93 | 1005.1 |
| 20260506184603 | 15 | 124 | 1.6 | 8.0 | 0.15 | 0.66 | 0.46 | 92 | 1005.2 |
| 20260506183111 | 15 | 142 | 0.0 | 4.8 | 0.23 | 0.66 | 0.46 | 92 | 1005.3 |
| 20260506181601 | 15 | 203 | 0.0 | 4.8 | 0.23 | 0.61 | 0.41 | 92 | 1005.7 |
| 20260506174609 | 15 | 0 | 0.0 | 1.6 | 0.30 | 0.51 | 0.30 | 93 | 1005.8 |
| 20260506173059 | 15 | 0 | 0.0 | 1.6 | 0.23 | 0.43 | 0.23 | 92 | 1005.9 |